Overview Statistics Trail Chart Weather Telemetry Raw packets
 

This is the latest recevied weather packets stored in our database for station/object WP3OF-2. If no packets are shown the sender has not sent any weather packets the latest 10 day(s).

<< 45 46 47 48 49 50 51 >>
Time Temp. Humidity Pressure Rain* Wind** Luminosity Snow
1788262257 22.78° C 72% 1026.3 hPa 0 mm - 100 W/m² -
1788261957 22.78° C 72% 1026.3 hPa 0 mm - 100 W/m² -
1788261651 22.78° C 72% 1026.7 hPa 0 mm - 91 W/m² -
1788261360 22.78° C 73% 1026.3 hPa 0 mm - 70 W/m² -
1788261049 22.78° C 73% 1026.3 hPa 0 mm - 49 W/m² -
1788260745 22.22° C 75% 1026 hPa 0 mm - 35 W/m² -
1788260440 22.22° C 75% 1026 hPa 0 mm - 35 W/m² -
1788260137 22.22° C 75% 1026 hPa 0 mm - 35 W/m² -
1788259836 22.22° C 78% 1026 hPa 0 mm - 20 W/m² -
1788259550 22.22° C 78% 1026 hPa 0 mm - 20 W/m² -
1788259228 22.22° C 78% 1026 hPa 0 mm - 14 W/m² -
1788258922 22.22° C 78% 1026 hPa 0 mm - 14 W/m² -
1788258639 21.67° C 80% 1025.6 hPa 0 mm - 8 W/m² -
1788258318 21.67° C 79% 1025.6 hPa 0 mm - 5 W/m² -
1788258012 21.67° C 78% 1025.6 hPa 0 mm - 3 W/m² -
1788257708 21.67° C 78% 1025.6 hPa 0 mm - 0 W/m² -
1788257402 21.67° C 78% 1025.6 hPa 0 mm - 0 W/m² -
1788257102 21.67° C 78% 1025.6 hPa 0 mm - 0 W/m² -
1788256760 21.11° C 82% 1025.6 hPa 0 mm - 0 W/m² -
1788256459 21.11° C 82% 1025.6 hPa 0 mm - 0 W/m² -
1788256152 21.11° C 81% 1025.2 hPa 0 mm - 0 W/m² -
1788255847 21.11° C 84% 1025.6 hPa 0 mm - 0 W/m² -
1788255547 20.56° C 86% 1025.6 hPa 0 mm - 0 W/m² -
1788255246 20.56° C 88% 1025.6 hPa 0 mm - 0 W/m² -
1788254942 20.56° C 88% 1025.6 hPa 0 mm - 0 W/m² -

* Rain latest hour (hover to see other rain measurements)
** Current wind speed in m/s (hover to see current wind gust speed)